DW2715 Weather Reports


Display with metric or nautical units.
time (UTC)temp
F
wind
direction
speed
MPH
gust
MPH
rain 1hr
in
rain 24hr
in
rain mn
in
humidity
%
barometer
mb
20260905154611 95 194 0.0 0.0 0.00 0.00 0.00 42 1015.2
20260905154105 95 139 0.0 2.0 0.00 0.00 0.00 42 1015.2
20260905153105 95 206 0.0 4.0 0.00 0.00 0.00 42 1015.2
20260905152605 94 173 0.0 4.0 0.00 0.00 0.00 43 1015.2
20260905152105 94 169 0.0 0.0 0.00 0.00 0.00 44 1015.1
20260905151606 94 202 0.0 0.0 0.00 0.00 0.00 43 1015.1
20260905151106 94 106 0.0 0.0 0.00 0.00 0.00 44 1015.1
20260905150106 93 164 0.0 3.0 0.00 0.00 0.00 44 1015.1
20260905145106 92 96 0.0 2.0 0.00 0.00 0.00 45 1015.1
20260905144605 93 270 1.0 7.0 0.00 0.00 0.00 44 1015.1
20260905144105 94 238 1.0 7.0 0.00 0.00 0.00 43 1015.2
20260905143607 93 123 1.0 3.0 0.00 0.00 0.00 44 1015.2
20260905143108 93 250 1.0 3.0 0.00 0.00 0.00 45 1015.3
20260905142105 92 252 0.0 4.0 0.00 0.00 0.00 45 1015.3
20260905141604 92 257 0.0 2.0 0.00 0.00 0.00 46 1015.2
20260905141105 92 236 0.0 2.0 0.00 0.00 0.00 45 1015.3
20260905140605 91 217 0.0 0.0 0.00 0.00 0.00 46 1015.3
20260905140103 91 280 0.0 2.0 0.00 0.00 0.00 46 1015.4
20260905135102 90 271 0.0 6.0 0.00 0.00 0.00 47 1015.5
20260905134603 90 244 1.0 7.0 0.00 0.00 0.00 47 1015.5
20260905134104 90 286 1.0 8.0 0.00 0.00 0.00 47 1015.5
20260905133602 89 245 0.0 8.0 0.00 0.00 0.00 49 1015.6
20260905133103 89 304 0.0 4.0 0.00 0.00 0.00 48 1015.6
20260905132602 89 290 1.0 7.0 0.00 0.00 0.00 48 1015.7
20260905132103 89 9 0.0 7.0 0.00 0.00 0.00 47 1015.7
20260905131102 89 329 0.0 5.0 0.00 0.00 0.00 47 1015.7
20260905125602 88 262 0.0 1.0 0.00 0.00 0.00 49 1015.9
20260905124102 89 262 1.0 7.0 0.00 0.00 0.00 48 1016.1
20260905123102 89 252 0.0 5.0 0.00 0.00 0.00 49 1016.2
20260905122602 88 258 0.0 0.0 0.00 0.00 0.00 49 1016.3
20260905122103 88 248 0.0 0.0 0.00 0.00 0.00 50 1016.3
20260905121602 88 250 0.0 0.0 0.00 0.00 0.00 50 1016.4
20260905121105 88 234 0.0 0.0 0.00 0.00 0.00 50 1016.4
20260905115601 88 67 0.0 0.0 0.00 0.00 0.00 51 1016.4
20260905115102 89 250 0.0 0.0 0.00 0.00 0.00 51 1016.5
20260905114603 89 232 0.0 0.0 0.00 0.00 0.00 52 1016.5
20260905114102 88 194 0.0 0.0 0.00 0.00 0.00 53 1016.5
20260905113603 87 198 0.0 0.0 0.00 0.00 0.00 55 1016.5
20260905113104 88 280 0.0 0.0 0.00 0.00 0.00 53 1016.5
20260905112604 88 184 0.0 0.0 0.00 0.00 0.00 55 1016.5
20260905112101 87 171 0.0 0.0 0.00 0.00 0.00 56 1016.5
20260905111602 87 176 0.0 0.0 0.00 0.00 0.00 57 1016.5
20260905111102 86 223 0.0 0.0 0.00 0.00 0.00 56 1016.5
20260905110602 86 147 0.0 0.0 0.00 0.00 0.00 58 1016.5
20260905105603 85 215 0.0 0.0 0.00 0.00 0.00 59 1016.5
20260905105105 85 240 0.0 0.0 0.00 0.00 0.00 59 1016.6
20260905104602 85 259 0.0 0.0 0.00 0.00 0.00 59 1016.7
20260905103603 84 253 0.0 0.0 0.00 0.00 0.00 61 1016.7
20260905103102 84 250 0.0 0.0 0.00 0.00 0.00 62 1016.7
20260905102602 84 355 0.0 0.0 0.00 0.00 0.00 63 1016.6
20260905102101 83 355 0.0 0.0 0.00 0.00 0.00 62 1016.6
20260905101600 83 355 0.0 0.0 0.00 0.00 0.00 63 1016.6
20260905101102 83 355 0.0 0.0 0.00 0.00 0.00 64 1016.7
20260905100057 83 355 0.0 0.0 0.00 0.00 0.00 64 1016.7
20260905095556 83 250 0.0 0.0 0.00 0.00 0.00 65 1016.8
20260905095056 83 250 0.0 0.0 0.00 0.00 0.00 64 1016.7
20260905094555 82 271 0.0 0.0 0.00 0.00 0.00 64 1016.8
20260905094054 82 303 0.0 0.0 0.00 0.00 0.00 66 1016.9
20260905093055 82 296 0.0 4.0 0.00 0.00 0.00 69 1016.8
20260905092556 82 86 0.0 3.0 0.00 0.00 0.00 70 1016.7
20260905092054 82 351 0.0 4.0 0.00 0.00 0.00 70 1016.9
20260905091555 82 309 0.0 4.0 0.00 0.00 0.00 71 1016.9
20260905091054 81 304 0.0 7.0 0.00 0.00 0.00 72 1016.8
20260905090555 81 261 0.0 7.0 0.00 0.00 0.00 72 1016.9
20260905090053 81 272 0.0 0.0 0.00 0.00 0.00 72 1016.8
20260905085550 80 336 0.0 0.0 0.00 0.00 0.00 73 1016.8
20260905085051 80 329 0.0 0.0 0.00 0.00 0.00 73 1016.8
20260905084545 80 68 0.0 2.0 0.00 0.00 0.00 73 1016.6
20260905084044 80 146 0.0 4.0 0.00 0.00 0.00 74 1016.5
20260905082544 79 346 0.0 4.0 0.00 0.00 0.00 75 1016.5
20260905082042 78 0 1.0 4.0 0.00 0.00 0.00 75 1016.5
20260905081541 78 348 1.0 4.0 0.00 0.00 0.00 75 1016.5
20260905081043 78 5 0.0 0.0 0.00 0.00 0.00 75 1016.4
20260905080538 78 311 0.0 0.0 0.00 0.00 0.00 75 1016.3
20260905080037 77 309 0.0 0.0 0.00 0.00 0.00 74 1016.3
20260905075535 77 321 0.0 0.0 0.00 0.00 0.00 75 1016.3
20260905074533 77 5 0.0 0.0 0.00 0.00 0.00 75 1016.3
20260905074033 76 351 0.0 4.0 0.00 0.00 0.00 75 1016.1
20260905073035 76 61 1.0 7.0 0.00 0.00 0.00 75 1016.1
20260905072033 76 24 1.0 5.0 0.00 0.00 0.00 75 1016.2
20260905071533 75 347 1.0 5.0 0.00 0.00 0.00 75 1016.2
20260905071033 75 322 1.0 5.0 0.00 0.00 0.00 76 1016.1
20260905070532 75 309 1.0 4.0 0.00 0.00 0.00 77 1016.2
20260905070032 74 337 1.0 5.0 0.00 0.00 0.00 78 1016.1
20260905065537 74 308 1.0 5.0 0.00 0.00 0.00 77 1016.1
20260905063533 73 343 0.0 2.0 0.00 0.00 0.00 79 1015.7
20260905063033 73 338 0.0 0.0 0.00 0.00 0.00 80 1015.7
20260905062531 73 338 0.0 2.0 0.00 0.00 0.00 80 1015.7
20260905062033 72 338 0.0 2.0 0.00 0.00 0.00 80 1015.7
20260905061531 72 344 0.0 3.0 0.00 0.00 0.00 81 1015.6
20260905061031 71 344 0.0 3.0 0.00 0.00 0.00 81 1015.6
20260905060532 71 331 0.0 3.0 0.00 0.00 0.00 81 1015.8
20260905060032 71 290 0.0 3.0 0.00 0.00 0.00 81 1015.9
20260905055531 71 303 0.0 4.0 0.00 0.00 0.00 82 1015.8
20260905055030 71 355 0.0 4.0 0.00 0.00 0.00 82 1015.8
20260905054530 71 10 0.0 1.0 0.00 0.00 0.00 82 1015.8
20260905054030 70 0 0.0 0.0 0.00 0.00 0.00 82 1015.6
20260905053531 70 24 0.0 4.0 0.00 0.00 0.00 82 1015.6
20260905053031 70 13 0.0 4.0 0.00 0.00 0.00 83 1015.4
20260905052031 70 346 0.0 1.0 0.00 0.00 0.00 83 1015.4
20260905051531 70 344 0.0 1.0 0.00 0.00 0.00 82 1015.5
20260905051030 70 343 0.0 0.0 0.00 0.00 0.00 82 1015.5
20260905050530 70 0 0.0 1.0 0.00 0.00 0.00 82 1015.4
20260905045531 70 0 0.0 1.0 0.00 0.00 0.00 82 1015.4
20260905045030 70 0 0.0 0.0 0.00 0.00 0.00 82 1015.2
20260905044530 70 0 0.0 2.0 0.00 0.00 0.00 82 1015.3
20260905043531 70 0 0.0 0.0 0.00 0.00 0.00 82 1015.4
20260905043030 70 349 0.0 2.0 0.00 0.00 0.00 82 1015.3
20260905042531 70 349 0.0 2.0 0.00 0.00 0.00 82 1015.4
20260905042030 70 349 0.0 2.0 0.00 0.00 0.00 82 1015.4
20260905041032 70 349 0.0 0.0 0.00 0.00 0.00 82 1015.4
20260905040530 70 349 0.0 0.0 0.00 0.00 0.00 82 1015.4
20260905040030 70 338 0.0 0.0 0.00 0.00 0.00 82 1015.6
20260905035530 70 338 0.0 0.0 0.00 0.00 0.00 82 1015.5
20260905035031 70 294 0.0 0.0 0.00 0.00 0.00 82 1015.5
20260905034530 70 292 0.0 0.0 0.00 0.00 0.00 82 1015.5
20260905034031 71 290 0.0 0.0 0.00 0.00 0.00 82 1015.5
20260905033031 71 290 0.0 0.0 0.00 0.00 0.00 82 1015.5
20260905032531 71 290 0.0 0.0 0.00 0.00 0.00 82 1015.6
20260905032030 71 288 0.0 0.0 0.00 0.00 0.00 82 1015.7
20260905031525 71 286 0.0 2.0 0.00 0.00 0.00 82 1015.6
20260905031020 71 286 0.0 2.0 0.00 0.00 0.00 82 1015.7
20260905030513 71 285 0.0 3.0 0.00 0.00 0.00 82 1015.7
20260905030013 71 284 0.0 3.0 0.00 0.00 0.00 82 1015.6
20260905025512 71 281 0.0 0.0 0.00 0.00 0.00 82 1015.6
20260905025010 71 281 0.0 0.0 0.00 0.00 0.00 82 1015.5
20260905024508 71 281 0.0 0.0 0.00 0.00 0.00 82 1015.4
20260905024005 71 281 0.0 0.0 0.00 0.00 0.00 82 1015.4
20260905023503 71 281 0.0 0.0 0.00 0.00 0.00 82 1015.5
20260905022004 71 200 0.0 0.0 0.00 0.00 0.00 81 1015.4
20260905021504 71 199 0.0 0.0 0.00 0.00 0.00 81 1015.3
20260905021004 71 199 0.0 0.0 0.00 0.00 0.00 81 1015.4
20260905020503 71 199 0.0 0.0 0.00 0.00 0.00 81 1015.3
20260905020002 71 199 0.0 0.0 0.00 0.00 0.00 81 1015.4
20260905015503 71 199 0.0 0.0 0.00 0.00 0.00 81 1015.5
20260905015002 71 199 0.0 0.0 0.00 0.00 0.00 81 1015.5
20260905014504 71 199 0.0 0.0 0.00 0.00 0.00 81 1015.6
20260905014002 71 199 0.0 0.0 0.00 0.00 0.00 81 1015.5
20260905013503 71 199 0.0 0.0 0.00 0.00 0.00 81 1015.6
20260905012959 71 199 0.0 0.0 0.00 0.00 0.00 80 1015.7
20260905012453 71 199 0.0 0.0 0.00 0.00 0.00 80 1015.7
20260905011949 72 199 0.0 0.0 0.00 0.00 0.00 80 1015.6
20260905011449 72 199 0.0 0.0 0.00 0.00 0.00 80 1015.6
20260905010950 72 199 0.0 0.0 0.00 0.00 0.00 80 1015.6
20260905010451 72 199 0.0 0.0 0.00 0.00 0.00 80 1015.7
20260905005947 72 199 0.0 0.0 0.00 0.00 0.00 80 1015.6
20260905005445 72 199 0.0 0.0 0.00 0.00 0.00 80 1015.6
20260905004945 72 199 0.0 0.0 0.00 0.00 0.00 79 1015.6
20260905004445 72 199 0.0 0.0 0.00 0.00 0.00 79 1015.6
20260905003445 72 199 0.0 0.0 0.00 0.00 0.00 78 1015.7
20260905002944 72 199 0.0 0.0 0.00 0.00 0.00 78 1015.8
20260905001945 73 199 0.0 0.0 0.00 0.00 0.00 78 1015.8
20260905001445 73 199 0.0 0.0 0.00 0.00 0.00 78 1015.8
20260905000941 73 199 0.0 0.0 0.00 0.00 0.00 78 1016.0
20260905000441 73 199 0.0 0.0 0.00 0.00 0.00 77 1016.0
20260904235941 73 199 0.0 0.0 0.00 0.00 0.00 77 1016.1
20260904235441 73 199 0.0 0.0 0.00 0.00 0.00 77 1016.1
20260904234941 73 199 0.0 0.0 0.00 0.00 0.00 77 1016.2
20260904234440 73 199 0.0 0.0 0.00 0.00 0.00 77 1016.3
20260904233941 73 199 0.0 0.0 0.00 0.00 0.00 77 1016.2
20260904233440 73 199 0.0 0.0 0.00 0.00 0.00 77 1016.2
20260904232942 74 199 0.0 0.0 0.00 0.00 0.00 76 1016.3
20260904232438 74 130 0.0 0.0 0.00 0.00 0.00 76 1016.3
20260904231937 74 130 0.0 0.0 0.00 0.00 0.00 76 1016.3
20260904231436 74 130 0.0 0.0 0.00 0.00 0.00 76 1016.3
20260904230933 74 130 0.0 0.0 0.00 0.00 0.00 76 1016.4
20260904230432 74 130 0.0 0.0 0.00 0.00 0.00 76 1016.4
20260904225931 74 130 0.0 0.0 0.00 0.00 0.00 75 1016.4
20260904223430 75 26 0.0 0.0 0.00 0.00 0.00 73 1016.6
20260904222422 75 26 0.0 0.0 0.00 0.00 0.00 73 1016.5
20260904221916 75 26 0.0 0.0 0.00 0.00 0.00 72 1016.7
20260904221414 75 26 0.0 0.0 0.00 0.00 0.00 72 1016.6
20260904220913 75 26 0.0 0.0 0.00 0.00 0.00 72 1016.6
20260904220414 76 26 0.0 0.0 0.00 0.00 0.00 72 1016.7
20260904215912 76 26 0.0 0.0 0.00 0.00 0.00 72 1016.7
20260904215412 76 26 0.0 0.0 0.00 0.00 0.00 72 1016.7
20260904214912 76 325 0.0 0.0 0.00 0.00 0.00 72 1016.7
20260904214412 76 325 0.0 0.0 0.00 0.00 0.00 72 1016.7
20260904213913 76 325 0.0 0.0 0.00 0.00 0.00 72 1016.6
20260904212912 76 325 0.0 0.0 0.00 0.00 0.00 72 1016.7
20260904211912 76 325 0.0 0.0 0.00 0.00 0.00 71 1016.7
20260904211413 76 325 0.0 0.0 0.00 0.00 0.00 72 1016.7
20260904210912 76 325 0.0 0.0 0.00 0.00 0.00 71 1016.8
20260904210411 76 325 0.0 0.0 0.00 0.00 0.00 71 1016.8
20260904205908 76 325 0.0 3.0 0.00 0.00 0.00 71 1016.8
20260904205405 76 325 0.0 3.0 0.00 0.00 0.00 70 1016.7
20260904204904 77 206 0.0 0.0 0.00 0.00 0.00 69 1016.7
20260904204403 77 206 0.0 0.0 0.00 0.00 0.00 68 1016.7
20260904203903 77 206 0.0 0.0 0.00 0.00 0.00 67 1016.7
20260904203404 77 206 0.0 0.0 0.00 0.00 0.00 67 1016.7
20260904202903 77 206 0.0 0.0 0.00 0.00 0.00 67 1016.7
20260904202403 78 206 0.0 2.0 0.00 0.00 0.00 67 1016.7
20260904201902 78 206 0.0 2.0 0.00 0.00 0.00 66 1016.7
20260904201402 78 206 0.0 0.0 0.00 0.00 0.00 66 1016.8
20260904200401 78 206 0.0 0.0 0.00 0.00 0.00 65 1016.8
20260904195901 78 206 0.0 0.0 0.00 0.00 0.00 65 1016.9
20260904195401 78 206 0.0 2.0 0.00 0.00 0.00 64 1016.8
20260904194901 78 206 0.0 3.0 0.00 0.00 0.00 64 1016.9
20260904193401 79 205 1.0 6.0 0.00 0.00 0.00 63 1016.8
20260904192902 79 197 1.0 6.0 0.00 0.00 0.00 63 1016.9
20260904192401 79 204 1.0 8.0 0.00 0.00 0.00 62 1016.8
20260904191901 79 194 1.0 8.0 0.00 0.00 0.00 62 1016.8
20260904191401 79 205 1.0 5.0 0.00 0.00 0.00 62 1016.8
20260904190902 79 194 0.0 5.0 0.00 0.00 0.00 62 1016.8
20260904190401 80 192 0.0 2.0 0.00 0.00 0.00 62 1016.8
20260904185901 80 185 0.0 2.0 0.00 0.00 0.00 62 1016.9
20260904185401 80 185 0.0 3.0 0.00 0.00 0.00 61 1016.8
20260904184901 80 187 0.0 3.0 0.00 0.00 0.00 61 1016.7
20260904184400 80 189 0.0 0.0 0.00 0.00 0.00 60 1016.7
20260904183348 81 196 0.0 3.0 0.00 0.00 0.00 59 1016.7
20260904182349 82 180 0.0 2.0 0.00 0.00 0.00 59 1016.6
20260904181346 82 164 0.0 0.0 0.00 0.00 0.00 58 1016.5
20260904180844 83 149 0.0 0.0 0.00 0.00 0.00 58 1016.5
20260904180343 83 149 0.0 0.0 0.00 0.00 0.00 57 1016.4
20260904175340 83 148 0.0 0.0 0.00 0.00 0.00 56 1016.4
20260904174840 84 146 0.0 0.0 0.00 0.00 0.00 55 1016.3
20260904173836 85 146 0.0 3.0 0.00 0.00 0.00 53 1016.3
20260904173336 85 150 0.0 3.0 0.00 0.00 0.00 53 1016.2
20260904172837 85 123 0.0 0.0 0.00 0.00 0.00 52 1016.3
20260904172334 86 126 0.0 0.0 0.00 0.00 0.00 52 1016.3
20260904171330 86 160 0.0 3.0 0.00 0.00 0.00 50 1016.3
20260904170829 87 175 0.0 3.0 0.00 0.00 0.00 49 1016.4
20260904170329 87 135 0.0 4.0 0.00 0.00 0.00 49 1016.4
20260904165829 87 115 0.0 4.0 0.00 0.00 0.00 49 1016.5
20260904164824 87 120 0.0 5.0 0.00 0.00 0.00 49 1016.5
20260904164318 88 152 1.0 6.0 0.00 0.00 0.00 48 1016.5
20260904163812 88 145 1.0 6.0 0.00 0.00 0.00 48 1016.5
20260904163306 88 126 1.0 6.0 0.00 0.00 0.00 47 1016.6
20260904162804 88 199 1.0 7.0 0.00 0.00 0.00 47 1016.5
20260904162306 88 115 1.0 7.0 0.00 0.00 0.00 46 1016.5
20260904161804 88 138 2.0 12.0 0.00 0.00 0.00 46 1016.5
20260904161304 88 153 2.0 12.0 0.00 0.00 0.00 47 1016.6
20260904160805 88 135 1.0 8.0 0.00 0.00 0.00 49 1016.6
20260904160303 88 135 1.0 9.0 0.00 0.00 0.00 51 1016.5
20260904155803 88 114 1.0 9.0 0.00 0.00 0.00 51 1016.6
20260904155302 88 102 2.0 9.0 0.00 0.00 0.00 52 1016.6
20260904154802 88 135 2.0 13.0 0.00 0.00 0.00 53 1016.7